| time (UTC) | temp F | wind direction | speed knots | gust knots | rain 1hr in | rain 24hr in | rain mn in | humidity % | barometer mb |
| 20260505040503 | 36 | 46 | 0.9 | 1.7 | 0.00 | 0.11 | 0.11 | 88 | 1016.3 |
| 20260505040004 | 36 | 48 | 1.7 | 6.1 | 0.00 | 0.11 | 0.11 | 87 | 1016.3 |
| 20260505035504 | 36 | 57 | 2.6 | 2.6 | 0.00 | 0.11 | 0.11 | 87 | 1016.1 |
| 20260505035003 | 36 | 114 | 0.9 | 2.6 | 0.00 | 0.11 | 0.11 | 86 | 1016.0 |
| 20260505034504 | 36 | 113 | 1.7 | 5.2 | 0.00 | 0.11 | 0.11 | 86 | 1016.1 |
| 20260505034003 | 36 | 85 | 1.7 | 2.6 | 0.00 | 0.11 | 0.11 | 85 | 1015.8 |
| 20260505033504 | 36 | 84 | 0.0 | 1.7 | 0.00 | 0.11 | 0.11 | 84 | 1015.8 |
| 20260505033004 | 36 | 84 | 0.0 | 1.7 | 0.00 | 0.11 | 0.11 | 84 | 1015.8 |
| 20260505032503 | 36 | 83 | 0.0 | 0.0 | 0.00 | 0.11 | 0.11 | 84 | 1015.7 |
| 20260505032004 | 36 | 83 | 0.0 | 0.0 | 0.00 | 0.11 | 0.11 | 84 | 1015.6 |
| 20260505031504 | 36 | 83 | 0.0 | 0.0 | 0.00 | 0.11 | 0.11 | 85 | 1015.5 |
| 20260505031004 | 35 | 83 | 0.0 | 0.9 | 0.00 | 0.11 | 0.11 | 85 | 1015.5 |
| 20260505030504 | 35 | 83 | 0.9 | 2.6 | 0.01 | 0.11 | 0.11 | 86 | 1015.3 |
| 20260505030004 | 35 | 83 | 1.7 | 2.6 | 0.01 | 0.11 | 0.11 | 86 | 1015.3 |
| 20260505025503 | 35 | 83 | 2.6 | 4.3 | 0.01 | 0.11 | 0.11 | 86 | 1015.3 |
| 20260505025004 | 35 | 92 | 2.6 | 2.6 | 0.01 | 0.11 | 0.11 | 86 | 1015.4 |
| 20260505024504 | 35 | 92 | 2.6 | 2.6 | 0.01 | 0.11 | 0.11 | 87 | 1015.2 |
| 20260505024004 | 35 | 91 | 2.6 | 5.2 | 0.02 | 0.11 | 0.11 | 87 | 1015.2 |
| 20260505023504 | 35 | 75 | 0.0 | 2.6 | 0.03 | 0.11 | 0.11 | 87 | 1015.2 |
| 20260505023004 | 35 | 63 | 1.7 | 4.3 | 0.04 | 0.11 | 0.11 | 87 | 1015.3 |
| 20260505022503 | 36 | 88 | 1.7 | 6.1 | 0.05 | 0.11 | 0.11 | 87 | 1015.3 |
| 20260505022004 | 36 | 93 | 2.6 | 6.1 | 0.06 | 0.11 | 0.11 | 86 | 1015.1 |
| 20260505021503 | 36 | 72 | 2.6 | 5.2 | 0.06 | 0.11 | 0.11 | 86 | 1015.1 |
| 20260505021004 | 36 | 74 | 0.9 | 4.3 | 0.07 | 0.11 | 0.11 | 86 | 1015.2 |
| 20260505020504 | 36 | 64 | 0.9 | 2.6 | 0.06 | 0.10 | 0.10 | 86 | 1015.1 |
| 20260505020004 | 37 | 94 | 0.9 | 2.6 | 0.07 | 0.10 | 0.10 | 86 | 1015.0 |
| 20260505015504 | 37 | 95 | 0.9 | 5.2 | 0.07 | 0.10 | 0.10 | 86 | 1015.0 |
| 20260505015003 | 37 | 27 | 1.7 | 6.1 | 0.09 | 0.10 | 0.10 | 85 | 1015.1 |
| 20260505014504 | 37 | 29 | 4.3 | 7.0 | 0.10 | 0.10 | 0.10 | 85 | 1015.3 |
| 20260505014004 | 37 | 325 | 6.1 | 8.7 | 0.09 | 0.09 | 0.09 | 84 | 1015.5 |
| 20260505013504 | 37 | 311 | 7.8 | 10.4 | 0.08 | 0.08 | 0.08 | 84 | 1015.5 |
| 20260505013004 | 37 | 317 | 4.3 | 8.7 | 0.07 | 0.07 | 0.07 | 84 | 1015.5 |
| 20260505012503 | 37 | 325 | 7.0 | 11.3 | 0.06 | 0.06 | 0.06 | 84 | 1015.4 |
| 20260505012004 | 37 | 305 | 5.2 | 11.3 | 0.05 | 0.05 | 0.05 | 85 | 1015.4 |
| 20260505011503 | 37 | 280 | 7.0 | 11.3 | 0.05 | 0.05 | 0.05 | 84 | 1015.4 |
| 20260505011004 | 37 | 267 | 7.8 | 13.0 | 0.04 | 0.04 | 0.04 | 83 | 1015.5 |
| 20260505010504 | 38 | 246 | 7.0 | 13.0 | 0.04 | 0.04 | 0.04 | 81 | 1015.5 |
| 20260505010004 | 38 | 274 | 5.2 | 13.0 | 0.03 | 0.03 | 0.03 | 80 | 1015.4 |
| 20260505005504 | 39 | 249 | 7.8 | 17.4 | 0.03 | 0.03 | 0.03 | 76 | 1015.4 |
| 20260505005004 | 40 | 266 | 5.2 | 12.2 | 0.01 | 0.01 | 0.01 | 71 | 1015.2 |
| 20260505004504 | 42 | 263 | 10.4 | 15.6 | 0.00 | 0.00 | 0.00 | 68 | 1015.2 |
| 20260505004004 | 43 | 231 | 6.1 | 12.2 | 0.00 | 0.00 | 0.00 | 64 | 1015.1 |
| 20260505003503 | 44 | 192 | 0.0 | 0.0 | 0.00 | 0.00 | 0.00 | 61 | 1015.1 |
| 20260505003004 | 44 | 267 | 0.0 | 0.0 | 0.00 | 0.00 | 0.00 | 60 | 1015.1 |
| 20260505002503 | 45 | 235 | 0.0 | 2.6 | 0.00 | 0.00 | 0.00 | 59 | 1015.2 |
| 20260505002004 | 45 | 215 | 2.6 | 5.2 | 0.00 | 0.00 | 0.00 | 57 | 1015.4 |
| 20260505001503 | 45 | 71 | 0.0 | 1.7 | 0.00 | 0.00 | 0.00 | 57 | 1015.3 |
| 20260505001004 | 45 | 67 | 0.0 | 1.7 | 0.00 | 0.00 | 0.00 | 56 | 1015.2 |
| 20260505000503 | 45 | 5 | 0.0 | 1.7 | 0.00 | 0.00 | 0.00 | 56 | 1015.4 |
| 20260505000004 | 45 | 5 | 0.9 | 1.7 | 0.00 | 0.00 | 0.00 | 56 | 1015.2 |
| 20260504235503 | 45 | 5 | 0.9 | 6.1 | 0.00 | 0.00 | 0.00 | 58 | 1015.2 |
| 20260504235004 | 45 | 338 | 2.6 | 6.1 | 0.00 | 0.00 | 0.00 | 58 | 1015.1 |
| 20260504234503 | 45 | 11 | 4.3 | 8.7 | 0.00 | 0.00 | 0.00 | 59 | 1015.1 |
| 20260504234004 | 45 | 343 | 0.0 | 6.1 | 0.00 | 0.00 | 0.00 | 58 | 1015.0 |
| 20260504233503 | 46 | 352 | 0.0 | 0.0 | 0.00 | 0.00 | 0.00 | 55 | 1014.9 |
| 20260504233004 | 46 | 349 | 0.0 | 0.0 | 0.00 | 0.00 | 0.00 | 51 | 1015.0 |
| 20260504232503 | 47 | 286 | 0.0 | 0.0 | 0.00 | 0.00 | 0.00 | 50 | 1014.8 |
| 20260504232004 | 47 | 218 | 0.0 | 0.0 | 0.00 | 0.00 | 0.00 | 49 | 1014.9 |
| 20260504231503 | 47 | 223 | 0.0 | 0.0 | 0.00 | 0.00 | 0.00 | 49 | 1014.9 |
| 20260504231004 | 47 | 217 | 0.0 | 17.4 | 0.00 | 0.00 | 0.00 | 47 | 1014.8 |
| 20260504230504 | 47 | 215 | 0.0 | 0.0 | 0.00 | 0.00 | 0.00 | 48 | 1014.7 |
| 20260504230003 | 47 | 214 | 0.0 | 0.0 | 0.00 | 0.00 | 0.00 | 49 | 1014.7 |
| 20260504225504 | 47 | 217 | 0.0 | 0.0 | 0.00 | 0.00 | 0.00 | 51 | 1014.6 |
| 20260504225004 | 46 | 216 | 0.0 | 0.0 | 0.00 | 0.00 | 0.00 | 51 | 1014.6 |
| 20260504224504 | 47 | 218 | 0.0 | 0.0 | 0.00 | 0.00 | 0.00 | 52 | 1014.6 |
| 20260504224004 | 47 | 216 | 14.8 | 22.6 | 0.00 | 0.00 | 0.00 | 53 | 1014.5 |
| 20260504223504 | 48 | 215 | 15.6 | 22.6 | 0.00 | 0.00 | 0.00 | 50 | 1014.5 |
| 20260504223004 | 50 | 213 | 11.3 | 19.1 | 0.00 | 0.00 | 0.00 | 44 | 1014.5 |
| 20260504222504 | 50 | 217 | 6.1 | 13.9 | 0.00 | 0.00 | 0.00 | 41 | 1014.7 |
| 20260504222004 | 51 | 208 | 2.6 | 6.1 | 0.00 | 0.00 | 0.00 | 40 | 1014.7 |
| 20260504221505 | 50 | 161 | 2.6 | 5.2 | 0.00 | 0.00 | 0.00 | 41 | 1014.6 |
| 20260504221003 | 50 | 186 | 2.6 | 6.1 | 0.00 | 0.00 | 0.00 | 41 | 1014.6 |
| 20260504220504 | 50 | 174 | 3.5 | 10.4 | 0.00 | 0.00 | 0.00 | 42 | 1014.7 |
| 20260504220003 | 50 | 159 | 5.2 | 10.4 | 0.00 | 0.00 | 0.00 | 42 | 1014.8 |
| 20260504215504 | 50 | 135 | 7.0 | 12.2 | 0.00 | 0.00 | 0.00 | 42 | 1014.8 |
| 20260504215004 | 49 | 141 | 5.2 | 8.7 | 0.00 | 0.00 | 0.00 | 42 | 1014.9 |
| 20260504214504 | 49 | 110 | 2.6 | 7.0 | 0.00 | 0.00 | 0.00 | 41 | 1014.9 |
| 20260504214004 | 50 | 115 | 5.2 | 7.8 | 0.00 | 0.00 | 0.00 | 40 | 1015.0 |
| 20260504213503 | 50 | 137 | 2.6 | 5.2 | 0.00 | 0.00 | 0.00 | 41 | 1015.1 |
| 20260504213004 | 50 | 357 | 0.9 | 4.3 | 0.00 | 0.00 | 0.00 | 40 | 1015.2 |
| 20260504212503 | 50 | 117 | 1.7 | 5.2 | 0.00 | 0.00 | 0.00 | 38 | 1015.0 |
| 20260504212004 | 50 | 116 | 1.7 | 2.6 | 0.00 | 0.00 | 0.00 | 41 | 1015.1 |
| 20260504211503 | 50 | 39 | 2.6 | 4.3 | 0.00 | 0.00 | 0.00 | 37 | 1015.2 |
| 20260504211004 | 50 | 355 | 1.7 | 4.3 | 0.00 | 0.00 | 0.00 | 37 | 1015.1 |
| 20260504210503 | 50 | 240 | 0.9 | 5.2 | 0.00 | 0.00 | 0.00 | 38 | 1015.2 |
| 20260504210004 | 50 | 259 | 0.9 | 10.4 | 0.00 | 0.00 | 0.00 | 38 | 1015.2 |
| 20260504205503 | 50 | 274 | 6.1 | 10.4 | 0.00 | 0.00 | 0.00 | 39 | 1015.3 |
| 20260504205004 | 49 | 339 | 6.1 | 11.3 | 0.00 | 0.00 | 0.00 | 40 | 1015.4 |
| 20260504204503 | 49 | 284 | 6.1 | 11.3 | 0.00 | 0.00 | 0.00 | 41 | 1015.5 |
| 20260504204004 | 49 | 321 | 2.6 | 12.2 | 0.00 | 0.00 | 0.00 | 44 | 1015.4 |
| 20260504203504 | 49 | 323 | 4.3 | 12.2 | 0.00 | 0.00 | 0.00 | 50 | 1015.5 |
| 20260504203003 | 49 | 323 | 7.0 | 11.3 | 0.00 | 0.00 | 0.00 | 47 | 1015.5 |
| 20260504202504 | 49 | 308 | 7.8 | 12.2 | 0.00 | 0.00 | 0.00 | 41 | 1015.5 |
| 20260504202004 | 50 | 321 | 6.1 | 12.2 | 0.00 | 0.00 | 0.00 | 39 | 1015.5 |
| 20260504201504 | 50 | 284 | 4.3 | 8.7 | 0.00 | 0.00 | 0.00 | 36 | 1015.5 |
| 20260504201003 | 50 | 256 | 5.2 | 7.8 | 0.00 | 0.00 | 0.00 | 37 | 1015.5 |
| 20260504200504 | 50 | 234 | 4.3 | 8.7 | 0.00 | 0.00 | 0.00 | 33 | 1015.5 |
| 20260504200003 | 50 | 243 | 1.7 | 5.2 | 0.00 | 0.00 | 0.00 | 34 | 1015.4 |
| 20260504195504 | 50 | 264 | 5.2 | 8.7 | 0.00 | 0.00 | 0.00 | 33 | 1015.4 |
| 20260504195003 | 50 | 343 | 1.7 | 7.0 | 0.00 | 0.00 | 0.00 | 32 | 1015.4 |
| 20260504194504 | 50 | 330 | 1.7 | 5.2 | 0.00 | 0.00 | 0.00 | 32 | 1015.5 |
| 20260504194003 | 50 | 310 | 1.7 | 5.2 | 0.00 | 0.00 | 0.00 | 33 | 1015.5 |
| 20260504193504 | 50 | 334 | 0.0 | 0.0 | 0.00 | 0.00 | 0.00 | 32 | 1015.5 |
| 20260504193003 | 50 | 302 | 0.0 | 0.0 | 0.00 | 0.00 | 0.00 | 33 | 1015.5 |
| 20260504192504 | 50 | 313 | 0.0 | 0.0 | 0.00 | 0.00 | 0.00 | 32 | 1015.6 |
| 20260504192004 | 50 | 325 | 0.0 | 6.1 | 0.00 | 0.00 | 0.00 | 32 | 1015.6 |
| 20260504191504 | 50 | 304 | 5.2 | 8.7 | 0.00 | 0.00 | 0.00 | 33 | 1015.7 |
| 20260504191004 | 51 | 321 | 5.2 | 10.4 | 0.00 | 0.00 | 0.00 | 33 | 1015.7 |
| 20260504190504 | 51 | 338 | 6.1 | 11.3 | 0.00 | 0.00 | 0.00 | 33 | 1015.8 |
| 20260504190004 | 51 | 311 | 5.2 | 8.7 | 0.00 | 0.00 | 0.00 | 33 | 1015.8 |
| 20260504185503 | 51 | 30 | 1.7 | 7.0 | 0.00 | 0.00 | 0.00 | 33 | 1015.7 |
| 20260504185003 | 52 | 262 | 4.3 | 11.3 | 0.00 | 0.00 | 0.00 | 32 | 1015.9 |
| 20260504184503 | 53 | 280 | 6.1 | 10.4 | 0.00 | 0.00 | 0.00 | 32 | 1015.9 |
| 20260504184004 | 52 | 276 | 5.2 | 12.2 | 0.00 | 0.00 | 0.00 | 33 | 1016.0 |
| 20260504183503 | 51 | 278 | 0.0 | 0.0 | 0.00 | 0.00 | 0.00 | 33 | 1016.1 |
| 20260504183004 | 50 | 289 | 0.0 | 0.0 | 0.00 | 0.00 | 0.00 | 34 | 1016.1 |
| 20260504182504 | 49 | 285 | 0.0 | 10.4 | 0.00 | 0.00 | 0.00 | 37 | 1016.3 |
| 20260504182003 | 49 | 290 | 4.3 | 14.8 | 0.00 | 0.00 | 0.00 | 38 | 1016.3 |
| 20260504181504 | 49 | 292 | 4.3 | 11.3 | 0.00 | 0.00 | 0.00 | 37 | 1016.4 |
| 20260504181004 | 49 | 271 | 7.8 | 14.8 | 0.00 | 0.00 | 0.00 | 38 | 1016.5 |
| 20260504180504 | 49 | 243 | 6.1 | 13.0 | 0.00 | 0.00 | 0.00 | 38 | 1016.5 |
| 20260504180004 | 49 | 291 | 8.7 | 13.9 | 0.00 | 0.00 | 0.00 | 36 | 1016.6 |
| 20260504175503 | 49 | 292 | 6.1 | 14.8 | 0.00 | 0.00 | 0.00 | 35 | 1016.6 |
| 20260504175004 | 49 | 258 | 7.8 | 12.2 | 0.00 | 0.00 | 0.00 | 33 | 1016.5 |
| 20260504174503 | 49 | 252 | 9.6 | 15.6 | 0.00 | 0.00 | 0.00 | 34 | 1016.5 |
| 20260504174004 | 50 | 241 | 11.3 | 20.0 | 0.00 | 0.00 | 0.00 | 32 | 1016.4 |
| 20260504173503 | 52 | 263 | 7.0 | 20.0 | 0.00 | 0.00 | 0.00 | 30 | 1016.4 |
| 20260504173004 | 52 | 249 | 6.1 | 20.0 | 0.00 | 0.00 | 0.00 | 34 | 1016.5 |
| 20260504172504 | 51 | 271 | 9.6 | 17.4 | 0.00 | 0.00 | 0.00 | 33 | 1016.5 |
| 20260504172004 | 51 | 273 | 6.1 | 13.9 | 0.00 | 0.00 | 0.00 | 35 | 1016.6 |
| 20260504171504 | 50 | 243 | 9.6 | 17.4 | 0.00 | 0.00 | 0.00 | 36 | 1016.6 |
| 20260504171004 | 50 | 215 | 11.3 | 18.2 | 0.00 | 0.00 | 0.00 | 37 | 1016.7 |
| 20260504170503 | 50 | 242 | 8.7 | 17.4 | 0.00 | 0.00 | 0.00 | 35 | 1016.7 |
| 20260504151004 | 40 | 306 | 0.9 | 12.2 | 0.00 | 0.00 | 0.00 | 60 | 1017.9 |
| 20260504150503 | 40 | 286 | 7.8 | 13.9 | 0.00 | 0.00 | 0.00 | 60 | 1018.1 |
| 20260504141004 | 39 | 229 | 2.6 | 5.2 | 0.00 | 0.00 | 0.00 | 54 | 1018.0 |
| 20260504140503 | 39 | 225 | 2.6 | 5.2 | 0.00 | 0.00 | 0.00 | 53 | 1018.0 |
| 20260504130504 | 35 | 169 | 0.0 | 1.7 | 0.00 | 0.00 | 0.00 | 55 | 1017.6 |
| 20260504110504 | 37 | 240 | 1.7 | 2.6 | 0.00 | 0.00 | 0.00 | 48 | 1017.2 |
| 20260504100503 | 38 | 46 | 2.6 | 4.3 | 0.00 | 0.00 | 0.00 | 46 | 1017.3 |
| 20260504082003 | 39 | 259 | 2.6 | 6.1 | 0.00 | 0.00 | 0.00 | 46 | 1017.9 |
| 20260504081504 | 39 | 263 | 2.6 | 5.2 | 0.00 | 0.00 | 0.00 | 46 | 1017.9 |
| 20260504081004 | 39 | 267 | 2.6 | 5.2 | 0.00 | 0.00 | 0.00 | 46 | 1017.9 |
| 20260504080504 | 39 | 261 | 0.0 | 0.0 | 0.00 | 0.00 | 0.00 | 45 | 1017.9 |
| 20260504050504 | 41 | 303 | 1.7 | 2.6 | 0.00 | 0.00 | 0.00 | 43 | 1019.1 |
| 20260504050003 | 41 | 310 | 2.6 | 4.3 | 0.00 | 0.00 | 0.00 | 43 | 1019.1 |
| 20260504045504 | 41 | 309 | 2.6 | 2.6 | 0.00 | 0.00 | 0.00 | 43 | 1019.1 |
| 20260504045004 | 42 | 309 | 1.7 | 2.6 | 0.00 | 0.00 | 0.00 | 42 | 1019.2 |
| 20260504044504 | 42 | 309 | 1.7 | 2.6 | 0.00 | 0.00 | 0.00 | 42 | 1019.1 |
| 20260504044004 | 42 | 309 | 2.6 | 2.6 | 0.00 | 0.00 | 0.00 | 42 | 1019.2 |
| 20260504043504 | 42 | 308 | 2.6 | 4.3 | 0.00 | 0.00 | 0.00 | 41 | 1019.2 |
| 20260504043004 | 43 | 315 | 1.7 | 2.6 | 0.00 | 0.00 | 0.00 | 40 | 1019.2 |
| 20260504042504 | 43 | 311 | 0.9 | 2.6 | 0.00 | 0.00 | 0.00 | 39 | 1019.3 |
| 20260504042003 | 43 | 309 | 2.6 | 4.3 | 0.00 | 0.00 | 0.00 | 39 | 1019.3 |
| 20260504041503 | 43 | 318 | 2.6 | 5.2 | 0.00 | 0.00 | 0.00 | 38 | 1019.3 |
| 20260504041004 | 44 | 332 | 2.6 | 5.2 | 0.00 | 0.00 | 0.00 | 38 | 1019.2 |